Time,TemperatureF,DewpointF,PressureIn,WindDirection,WindDirectionDegrees,WindSpeedMPH,WindSpeedGustMPH,Humidity,HourlyPrecipIn,Conditions,Clouds,dailyrainin,SolarRadiationWatts/m^2,SoftwareType,DateUTC
2013-02-17 00:21:00,32.0,32.0,-100.00,NNE,21,0.0,4.0,98,0.00,,,0.19,0.000000,,2013-02-17 08:21:00,
2013-02-17 00:31:00,32.0,32.0,-100.00,NNE,21,0.0,4.0,98,0.00,,,0.19,0.000000,,2013-02-17 08:31:00,
2013-02-17 00:42:00,32.0,32.0,-100.00,NNE,21,0.0,4.0,98,0.00,,,0.19,0.000000,,2013-02-17 08:42:00,
2013-02-17 01:21:00,32.0,32.0,-100.00,North,357,0.0,3.0,99,0.00,,,0.19,0.000000,,2013-02-17 09:21:00,
2013-02-17 01:31:00,32.0,32.0,-100.00,North,357,0.0,3.0,99,0.00,,,0.19,0.000000,,2013-02-17 09:31:00,
2013-02-17 01:41:00,32.0,32.0,-100.00,North,357,0.0,3.0,99,0.00,,,0.19,0.000000,,2013-02-17 09:41:00,
2013-02-17 01:51:00,32.0,32.0,-100.00,North,357,0.0,3.0,99,0.00,,,0.19,0.000000,,2013-02-17 09:51:00,
2013-02-17 02:11:00,32.0,31.0,-100.00,East,86,1.0,7.0,95,0.00,,,0.19,0.000000,,2013-02-17 10:11:00,
2013-02-17 02:21:00,32.0,31.0,-100.00,East,86,1.0,7.0,95,0.00,,,0.19,0.000000,,2013-02-17 10:21:00,
2013-02-17 02:31:00,32.0,31.0,-100.00,East,86,1.0,7.0,95,0.00,,,0.19,0.000000,,2013-02-17 10:31:00,
2013-02-17 02:41:00,32.0,31.0,-100.00,East,86,1.0,7.0,95,0.00,,,0.19,0.000000,,2013-02-17 10:41:00,
2013-02-17 02:51:00,32.0,31.0,-100.00,East,86,1.0,7.0,95,0.00,,,0.19,0.000000,,2013-02-17 10:51:00,
2013-02-17 02:52:00,32.0,31.0,-100.00,SSW,197,0.0,5.0,97,0.00,,,0.19,0.000000,,2013-02-17 10:52:00,
2013-02-17 03:11:00,32.0,31.0,-100.00,SSW,197,0.0,5.0,97,0.00,,,0.19,0.000000,,2013-02-17 11:11:00,
2013-02-17 03:21:00,32.0,31.0,-100.00,SSW,197,0.0,5.0,97,0.00,,,0.19,0.000000,,2013-02-17 11:21:00,
2013-02-17 03:32:00,32.0,31.0,-100.00,SSW,197,0.0,5.0,97,0.00,,,0.19,0.000000,,2013-02-17 11:32:00,
2013-02-17 03:41:00,32.0,31.0,-100.00,SSW,197,0.0,5.0,97,0.00,,,0.19,0.000000,,2013-02-17 11:41:00,
2013-02-17 03:52:00,32.0,31.0,-100.00,ENE,70,0.0,6.0,97,0.00,,,0.19,0.000000,,2013-02-17 11:52:00,
2013-02-17 04:22:00,32.0,31.0,-100.00,ENE,70,0.0,6.0,97,0.00,,,0.19,0.000000,,2013-02-17 12:22:00,
2013-02-17 04:32:00,32.0,31.0,-100.00,ENE,70,0.0,6.0,97,0.00,,,0.19,0.000000,,2013-02-17 12:32:00,
2013-02-17 04:42:00,32.0,31.0,-100.00,ENE,70,0.0,6.0,97,0.00,,,0.19,0.000000,,2013-02-17 12:42:00,
2013-02-17 05:21:00,31.0,30.0,-100.00,ESE,113,0.0,6.0,96,0.00,,,0.19,0.000000,,2013-02-17 13:21:00,
2013-02-17 05:32:00,31.0,30.0,-100.00,ESE,113,0.0,6.0,96,0.00,,,0.19,0.000000,,2013-02-17 13:32:00,
2013-02-17 05:41:00,31.0,30.0,-100.00,ESE,113,0.0,6.0,96,0.00,,,0.19,0.000000,,2013-02-17 13:41:00,
2013-02-17 05:51:00,31.0,30.0,-100.00,ESE,113,0.0,6.0,96,0.00,,,0.19,0.000000,,2013-02-17 13:51:00,
2013-02-17 05:52:00,31.0,29.0,-100.00,NE,36,0.0,3.0,94,0.00,,,0.19,0.000000,,2013-02-17 13:52:00,
2013-02-17 06:11:00,31.0,29.0,-100.00,NE,36,0.0,3.0,94,0.00,,,0.19,0.000000,,2013-02-17 14:11:00,
2013-02-17 06:21:00,31.0,29.0,-100.00,NE,36,0.0,3.0,94,0.00,,,0.19,0.000000,,2013-02-17 14:21:00,
2013-02-17 06:32:00,31.0,29.0,-100.00,NE,36,0.0,3.0,94,0.00,,,0.19,0.000000,,2013-02-17 14:32:00,
2013-02-17 06:42:00,31.0,29.0,-100.00,NE,36,0.0,3.0,94,0.00,,,0.19,0.000000,,2013-02-17 14:42:00,
2013-02-17 07:11:00,30.0,29.0,-100.00,SSE,150,0.0,6.0,96,0.00,,,0.19,0.000000,,2013-02-17 15:11:00,
2013-02-17 07:21:00,30.0,29.0,-100.00,SSE,150,0.0,6.0,96,0.00,,,0.19,0.000000,,2013-02-17 15:21:00,
2013-02-17 07:31:00,30.0,29.0,-100.00,SSE,150,0.0,6.0,96,0.00,,,0.19,0.000000,,2013-02-17 15:31:00,
2013-02-17 07:41:00,30.0,29.0,-100.00,SSE,150,0.0,6.0,96,0.00,,,0.19,0.000000,,2013-02-17 15:41:00,
2013-02-17 07:51:00,30.0,29.0,-100.00,SSE,150,0.0,6.0,96,0.00,,,0.19,0.000000,,2013-02-17 15:51:00,
2013-02-17 08:11:00,31.0,30.0,-100.00,SSE,150,0.0,4.0,95,0.00,,,0.19,2.000000,,2013-02-17 16:11:00,
2013-02-17 08:21:00,31.0,30.0,-100.00,SSE,150,0.0,4.0,95,0.00,,,0.19,2.000000,,2013-02-17 16:21:00,
2013-02-17 08:31:00,31.0,30.0,-100.00,SSE,150,0.0,4.0,95,0.00,,,0.19,2.000000,,2013-02-17 16:31:00,
2013-02-17 08:41:00,31.0,30.0,-100.00,SSE,150,0.0,4.0,95,0.00,,,0.19,2.000000,,2013-02-17 16:41:00,
2013-02-17 08:51:00,31.0,30.0,-100.00,SSE,150,0.0,4.0,95,0.00,,,0.19,2.000000,,2013-02-17 16:51:00,
2013-02-17 08:52:00,31.0,29.0,-100.00,ESE,114,0.0,3.0,93,0.00,,,0.19,4.000000,,2013-02-17 16:52:00,
2013-02-17 09:11:00,31.0,29.0,-100.00,ESE,114,0.0,3.0,93,0.00,,,0.19,4.000000,,2013-02-17 17:11:00,
2013-02-17 09:21:00,31.0,29.0,-100.00,ESE,114,0.0,3.0,93,0.00,,,0.19,4.000000,,2013-02-17 17:21:00,
2013-02-17 09:31:00,31.0,29.0,-100.00,ESE,114,0.0,3.0,93,0.00,,,0.19,4.000000,,2013-02-17 17:31:00,
2013-02-17 09:41:00,31.0,29.0,-100.00,ESE,114,0.0,3.0,93,0.00,,,0.19,4.000000,,2013-02-17 17:41:00,
2013-02-17 09:52:00,33.0,30.0,-100.00,WNW,288,0.0,5.0,88,0.00,,,0.19,12.000000,,2013-02-17 17:52:00,
2013-02-17 10:21:00,33.0,30.0,-100.00,WNW,288,0.0,5.0,88,0.00,,,0.19,12.000000,,2013-02-17 18:21:00,
2013-02-17 10:33:00,33.0,30.0,-100.00,WNW,288,0.0,5.0,88,0.00,,,0.19,12.000000,,2013-02-17 18:33:00,
2013-02-17 10:42:00,33.0,30.0,-100.00,WNW,288,0.0,5.0,88,0.00,,,0.19,12.000000,,2013-02-17 18:42:00,
2013-02-17 11:21:00,34.0,30.0,-100.00,SSW,212,1.0,4.0,86,0.00,,,0.19,12.000000,,2013-02-17 19:21:00,
2013-02-17 11:32:00,34.0,30.0,-100.00,SSW,212,1.0,4.0,86,0.00,,,0.19,12.000000,,2013-02-17 19:32:00,
2013-02-17 11:41:00,34.0,30.0,-100.00,SSW,212,1.0,4.0,86,0.00,,,0.19,12.000000,,2013-02-17 19:41:00,
2013-02-17 11:51:00,34.0,30.0,-100.00,SSW,212,1.0,4.0,86,0.00,,,0.19,12.000000,,2013-02-17 19:51:00,
2013-02-17 11:52:00,35.0,31.0,-100.00,East,95,0.0,2.0,85,0.00,,,0.19,17.000000,,2013-02-17 19:52:00,
2013-02-17 12:11:00,35.0,31.0,-100.00,East,95,0.0,2.0,85,0.00,,,0.19,17.000000,,2013-02-17 20:11:00,
2013-02-17 12:21:00,35.0,31.0,-100.00,East,95,0.0,2.0,85,0.00,,,0.19,17.000000,,2013-02-17 20:21:00,
2013-02-17 12:31:00,35.0,31.0,-100.00,East,95,0.0,2.0,85,0.00,,,0.19,17.000000,,2013-02-17 20:31:00,
2013-02-17 12:42:00,35.0,31.0,-100.00,East,95,0.0,2.0,85,0.00,,,0.19,17.000000,,2013-02-17 20:42:00,
2013-02-17 12:52:00,37.0,32.0,-100.00,East,79,0.0,2.0,83,0.00,,,0.19,32.000000,,2013-02-17 20:52:00,
2013-02-17 13:21:00,37.0,32.0,-100.00,East,79,0.0,2.0,83,0.00,,,0.19,32.000000,,2013-02-17 21:21:00,
2013-02-17 13:31:00,37.0,32.0,-100.00,East,79,0.0,2.0,83,0.00,,,0.19,32.000000,,2013-02-17 21:31:00,
2013-02-17 13:41:00,37.0,32.0,-100.00,East,79,0.0,2.0,83,0.00,,,0.19,32.000000,,2013-02-17 21:41:00,
2013-02-17 13:52:00,38.0,32.0,-100.00,NE,53,0.0,1.0,80,0.08,,,0.27,123.000000,,2013-02-17 21:52:00,
2013-02-17 14:12:00,38.0,32.0,-100.00,NE,53,0.0,1.0,80,0.08,,,0.27,123.000000,,2013-02-17 22:12:00,
2013-02-17 14:21:00,38.0,32.0,-100.00,NE,53,0.0,1.0,80,0.08,,,0.27,123.000000,,2013-02-17 22:21:00,
2013-02-17 14:32:00,38.0,32.0,-100.00,NE,53,0.0,1.0,80,0.08,,,0.27,123.000000,,2013-02-17 22:32:00,
2013-02-17 14:41:00,38.0,32.0,-100.00,NE,53,0.0,1.0,80,0.08,,,0.27,123.000000,,2013-02-17 22:41:00,
2013-02-17 14:52:00,38.0,33.0,-100.00,NNE,19,0.0,2.0,81,0.05,,,0.32,198.000000,,2013-02-17 22:52:00,
2013-02-17 15:11:00,38.0,33.0,-100.00,NNE,19,0.0,2.0,81,0.05,,,0.32,198.000000,,2013-02-17 23:11:00,
2013-02-17 15:21:00,38.0,33.0,-100.00,NNE,19,0.0,2.0,81,0.05,,,0.32,198.000000,,2013-02-17 23:21:00,
2013-02-17 15:31:00,38.0,33.0,-100.00,NNE,19,0.0,2.0,81,0.05,,,0.32,198.000000,,2013-02-17 23:31:00,
2013-02-17 15:41:00,38.0,33.0,-100.00,NNE,19,0.0,2.0,81,0.05,,,0.32,198.000000,,2013-02-17 23:41:00,
2013-02-17 15:52:00,36.0,33.0,-100.00,NNE,16,0.0,2.0,88,0.00,,,0.32,121.000000,,2013-02-17 23:52:00,
2013-02-17 16:11:00,36.0,33.0,-100.00,NNE,16,0.0,2.0,88,0.00,,,0.32,121.000000,,2013-02-18 00:11:00,
2013-02-17 16:22:00,36.0,33.0,-100.00,NNE,16,0.0,2.0,88,0.00,,,0.32,121.000000,,2013-02-18 00:22:00,
2013-02-17 16:31:00,36.0,33.0,-100.00,NNE,16,0.0,2.0,88,0.00,,,0.32,121.000000,,2013-02-18 00:31:00,
2013-02-17 16:41:00,36.0,33.0,-100.00,NNE,16,0.0,2.0,88,0.00,,,0.32,121.000000,,2013-02-18 00:41:00,
2013-02-17 17:21:00,33.0,32.0,-100.00,NNW,347,0.0,2.0,96,0.00,,,0.30,40.000000,,2013-02-18 01:21:00,
2013-02-17 17:31:00,33.0,32.0,-100.00,NNW,347,0.0,2.0,96,0.00,,,0.30,40.000000,,2013-02-18 01:31:00,
2013-02-17 17:41:00,33.0,32.0,-100.00,NNW,347,0.0,2.0,96,0.00,,,0.30,40.000000,,2013-02-18 01:41:00,
2013-02-17 17:51:00,33.0,32.0,-100.00,NNW,347,0.0,2.0,96,0.00,,,0.30,40.000000,,2013-02-18 01:51:00,
2013-02-17 17:52:00,31.0,31.0,-100.00,NNW,347,0.0,0.0,98,0.00,,,0.22,3.000000,,2013-02-18 01:52:00,
2013-02-17 18:21:00,31.0,31.0,-100.00,NNW,347,0.0,0.0,98,0.00,,,0.22,3.000000,,2013-02-18 02:21:00,
2013-02-17 18:32:00,31.0,31.0,-100.00,NNW,347,0.0,0.0,98,0.00,,,0.22,3.000000,,2013-02-18 02:32:00,
2013-02-17 18:41:00,31.0,31.0,-100.00,NNW,347,0.0,0.0,98,0.00,,,0.22,3.000000,,2013-02-18 02:41:00,
2013-02-17 19:11:00,31.0,31.0,-100.00,East,92,0.0,1.0,99,0.00,,,0.18,0.000000,,2013-02-18 03:11:00,
2013-02-17 19:21:00,31.0,31.0,-100.00,East,92,0.0,1.0,99,0.00,,,0.18,0.000000,,2013-02-18 03:21:00,
2013-02-17 19:31:00,31.0,31.0,-100.00,East,92,0.0,1.0,99,0.00,,,0.18,0.000000,,2013-02-18 03:31:00,
2013-02-17 19:42:00,31.0,31.0,-100.00,East,92,0.0,1.0,99,0.00,,,0.18,0.000000,,2013-02-18 03:42:00,
2013-02-17 19:51:00,31.0,31.0,-100.00,East,92,0.0,1.0,99,0.00,,,0.18,0.000000,,2013-02-18 03:51:00,
2013-02-17 20:21:00,31.0,31.0,-100.00,East,92,0.0,0.0,99,0.00,,,0.17,0.000000,,2013-02-18 04:21:00,
2013-02-17 20:32:00,31.0,31.0,-100.00,East,92,0.0,0.0,99,0.00,,,0.17,0.000000,,2013-02-18 04:32:00,
2013-02-17 20:41:00,31.0,31.0,-100.00,East,92,0.0,0.0,99,0.00,,,0.17,0.000000,,2013-02-18 04:41:00,
2013-02-17 20:51:00,31.0,31.0,-100.00,East,92,0.0,0.0,99,0.00,,,0.17,0.000000,,2013-02-18 04:51:00,
2013-02-17 21:11:00,30.0,30.0,-100.00,East,91,0.0,0.0,99,0.00,,,0.15,0.000000,,2013-02-18 05:11:00,
2013-02-17 21:21:00,30.0,30.0,-100.00,East,91,0.0,0.0,99,0.00,,,0.15,0.000000,,2013-02-18 05:21:00,
2013-02-17 21:31:00,30.0,30.0,-100.00,East,91,0.0,0.0,99,0.00,,,0.15,0.000000,,2013-02-18 05:31:00,
2013-02-17 21:41:00,30.0,30.0,-100.00,East,91,0.0,0.0,99,0.00,,,0.15,0.000000,,2013-02-18 05:41:00,
2013-02-17 21:51:00,30.0,30.0,-100.00,East,91,0.0,0.0,99,0.00,,,0.15,0.000000,,2013-02-18 05:51:00,
2013-02-17 22:21:00,30.0,30.0,-100.00,NE,36,0.0,1.0,99,0.00,,,0.15,0.000000,,2013-02-18 06:21:00,
2013-02-17 22:31:00,30.0,30.0,-100.00,NE,36,0.0,1.0,99,0.00,,,0.15,0.000000,,2013-02-18 06:31:00,
2013-02-17 22:41:00,30.0,30.0,-100.00,NE,36,0.0,1.0,99,0.00,,,0.15,0.000000,,2013-02-18 06:41:00,
2013-02-17 22:51:00,30.0,30.0,-100.00,NE,36,0.0,1.0,99,0.00,,,0.15,0.000000,,2013-02-18 06:51:00,
2013-02-17 23:11:00,29.0,29.0,-100.00,NE,36,0.0,0.0,99,0.00,,,0.13,0.000000,,2013-02-18 07:11:00,
2013-02-17 23:21:00,29.0,29.0,-100.00,NE,36,0.0,0.0,99,0.00,,,0.13,0.000000,,2013-02-18 07:21:00,
2013-02-17 23:31:00,29.0,29.0,-100.00,NE,36,0.0,0.0,99,0.00,,,0.13,0.000000,,2013-02-18 07:31:00,
2013-02-17 23:42:00,29.0,29.0,-100.00,NE,36,0.0,0.0,99,0.00,,,0.13,0.000000,,2013-02-18 07:42:00,
2013-02-17 23:51:00,29.0,29.0,-100.00,NE,36,0.0,0.0,99,0.00,,,0.13,0.000000,,2013-02-18 07:51:00,
2013-02-17 23:52:00,29.0,29.0,-100.00,NE,36,0.0,0.0,99,0.00,,,0.13,0.000000,,2013-02-18 07:52:00,